Aéroclub Cannes UACA

Aéroclub Cannes UACA
UACA
Approuvé A.T.O. EASA – N°FR.ATO.0108

UACA, UNION des aéroclubs
Cannes “Ailes d’Azur”, Nice “Côte d’Azur”, Grasse “St Exupery”, ACCA “Francis Séverac”

Un cache-pitot se trouve à bord de chaque avion. Pensez à le mettre en place à la fin de chaque vol !

Avant de quitter l'avion, vérifiez que vous n'emportez pas la checklist

Un vol ne s'entreprend qu'avec un pare-brise parfaitement propre, il en va de votre sécurité, et de celle des autres

Après chaque vol, merci de mettre en place les pares-soleil!


Météo à Cannes:
METAR
LFMD 191600Z AUTO 19006KT 9999 BKN026 11/08 Q1026 NOSIG =
LFMD 191400Z 1915/2015 18006KT CAVOK BECMG 1915/1916 BKN020 BECMG 1918/1920 36010KT CAVOK

TAF
LFMD 191400Z 1915/2015 18006KT CAVOK BECMG 1915/1916 BKN020 BECMG 1918/1920 36010KT CAVOK =

SR / SS: 07:04 / 16:22 UTC (LFMD 2022-01-19)